EN

Hourly Weather Palmierowo

Today, 20 April, Tuesday

Time Temperature Precipitation Wind Pressure Humidity
00:00 +10°C° 0 mm 1 mps 752 mmHg 83%
01:00 +9°C° 0 mm 1 mps 752 mmHg 85%
02:00 +9°C° 0 mm 1 mps 752 mmHg 85%
03:00 +9°C° 0 mm 1 mps 752 mmHg 86%
04:00 +9°C° 0 mm 1 mps 752 mmHg 87%
05:00 +10°C° 0.1 mm 1 mps 752 mmHg 84%
06:00 +10°C° 0.1 mm 1 mps 752 mmHg 82%
07:00 +11°C° 0.1 mm 1 mps 752 mmHg 80%
08:00 +12°C° 0.2 mm 1 mps 752 mmHg 74%
09:00 +13°C° 0.2 mm 1 mps 752 mmHg 68%
10:00 +13°C° 0.2 mm 1 mps 752 mmHg 63%
11:00 +14°C° 0.1 mm 1 mps 752 mmHg 59%
12:00 +15°C° 0.1 mm 1 mps 751 mmHg 55%
13:00 +16°C° 0.1 mm 1 mps 751 mmHg 51%
14:00 +16°C° 0.5 mm 1 mps 750 mmHg 52%
15:00 +16°C° 0.5 mm 1 mps 750 mmHg 53%
16:00 +16°C° 0.5 mm 1 mps 750 mmHg 53%
17:00 +14°C° 0.2 mm 1 mps 750 mmHg 60%
18:00 +13°C° 0.2 mm 1 mps 750 mmHg 67%
19:00 +12°C° 0.2 mm 2 mps 750 mmHg 74%
20:00 +10°C° 0.1 mm 2 mps 750 mmHg 76%
21:00 +10°C° 0.1 mm 2 mps 749 mmHg 78%
22:00 +10°C° 0.1 mm 2 mps 749 mmHg 80%
23:00 +10°C° 0.2 mm 1 mps 749 mmHg 83%

Tomorrow, 21 April, Wednesday

Time Temperature Precipitation Wind Pressure Humidity
00:00 +10°C° 0.2 mm 1 mps 749 mmHg 85%
01:00 +9°C° 0.2 mm 1 mps 749 mmHg 88%
02:00 +9°C° 0.1 mm 1 mps 749 mmHg 89%
03:00 +8°C° 0.1 mm 1 mps 748 mmHg 90%
04:00 +8°C° 0.1 mm 1 mps 748 mmHg 92%
05:00 +8°C° 0 mm 1 mps 748 mmHg 89%
06:00 +9°C° 0 mm 1 mps 748 mmHg 87%
07:00 +9°C° 0 mm 2 mps 748 mmHg 84%
08:00 +10°C° 0.2 mm 2 mps 748 mmHg 77%
09:00 +13°C° 0.2 mm 2 mps 748 mmHg 70%
10:00 +13°C° 0.2 mm 3 mps 748 mmHg 63%
11:00 +14°C° 0.2 mm 3 mps 748 mmHg 58%
12:00 +14°C° 0.2 mm 4 mps 747 mmHg 52%
13:00 +15°C° 0.2 mm 4 mps 747 mmHg 46%
14:00 +14°C° 0 mm 5 mps 747 mmHg 50%
15:00 +14°C° 0 mm 5 mps 747 mmHg 53%
16:00 +13°C° 0 mm 5 mps 747 mmHg 56%
17:00 +12°C° 0 mm 5 mps 747 mmHg 61%
18:00 +10°C° 0 mm 5 mps 747 mmHg 65%
19:00 +10°C° 0 mm 4 mps 747 mmHg 69%
20:00 +8°C° 0 mm 4 mps 747 mmHg 72%
21:00 +7°C° 0 mm 4 mps 748 mmHg 75%
22:00 +5°C° 0 mm 4 mps 748 mmHg 77%
23:00 +5°C° 0 mm 4 mps 748 mmHg 79%

Day after tomorrow, 22 April, Thursday

Time Temperature Precipitation Wind Pressure Humidity
00:00 +4°C° 0 mm 4 mps 748 mmHg 81%
01:00 +3°C° 0 mm 4 mps 748 mmHg 82%
02:00 +2°C° 0 mm 5 mps 748 mmHg 82%
03:00 +1°C° 0 mm 5 mps 748 mmHg 82%
04:00 -1°C° 0 mm 6 mps 748 mmHg 82%
05:00 -1°C° 0 mm 6 mps 748 mmHg 78%
06:00 0°C° 0 mm 7 mps 748 mmHg 74%
07:00 0°C° 0 mm 8 mps 748 mmHg 71%
08:00 +1°C° 0 mm 8 mps 748 mmHg 68%
09:00 +1°C° 0 mm 8 mps 748 mmHg 65%
10:00 +2°C° 0 mm 8 mps 748 mmHg 62%
11:00 +2°C° 0.2 mm 8 mps 748 mmHg 63%
12:00 +4°C° 0.2 mm 8 mps 748 mmHg 64%
13:00 +5°C° 0.2 mm 8 mps 748 mmHg 65%
14:00 +4°C° 0.5 mm 8 mps 748 mmHg 71%
15:00 +3°C° 0.5 mm 7 mps 748 mmHg 76%
16:00 +3°C° 0.5 mm 7 mps 748 mmHg 82%
17:00 +2°C° 0.7 mm 6 mps 748 mmHg 85%
18:00 +2°C° 0.7 mm 6 mps 749 mmHg 88%
19:00 +1°C° 0.7 mm 6 mps 749 mmHg 91%
20:00 +1°C° 0.1 mm 6 mps 749 mmHg 91%
21:00 +1°C° 0.1 mm 5 mps 749 mmHg 91%
22:00 +1°C° 0.1 mm 5 mps 749 mmHg 91%
23:00 +1°C° 0 mm 5 mps 749 mmHg 91%

23 April, Friday

Time Temperature Precipitation Wind Pressure Humidity
00:00 +1°C° 0 mm 5 mps 750 mmHg 90%
01:00 +1°C° 0 mm 6 mps 750 mmHg 89%
02:00 +1°C° 0 mm 6 mps 750 mmHg 90%
03:00 +1°C° 0 mm 6 mps 750 mmHg 90%
04:00 +1°C° 0 mm 6 mps 750 mmHg 91%
05:00 +1°C° 0 mm 5 mps 751 mmHg 90%
06:00 +1°C° 0 mm 5 mps 752 mmHg 88%
07:00 +1°C° 0 mm 5 mps 752 mmHg 87%
08:00 +2°C° 0.1 mm 5 mps 753 mmHg 86%
09:00 +2°C° 0.1 mm 5 mps 753 mmHg 85%
10:00 +3°C° 0.1 mm 5 mps 754 mmHg 84%
11:00 +4°C° 0.2 mm 6 mps 754 mmHg 73%
12:00 +5°C° 0.2 mm 6 mps 754 mmHg 63%
13:00 +8°C° 0.2 mm 7 mps 754 mmHg 52%
14:00 +8°C° 0 mm 7 mps 754 mmHg 49%
15:00 +8°C° 0 mm 7 mps 755 mmHg 47%
16:00 +8°C° 0 mm 7 mps 755 mmHg 44%
17:00 +5°C° 0 mm 6 mps 756 mmHg 47%
18:00 +4°C° 0 mm 4 mps 756 mmHg 50%
19:00 +2°C° 0 mm 3 mps 756 mmHg 53%
20:00 +2°C° 0 mm 3 mps 756 mmHg 55%
21:00 +1°C° 0 mm 3 mps 756 mmHg 57%
22:00 +1°C° 0 mm 3 mps 756 mmHg 59%
23:00 +1°C° 0 mm 3 mps 756 mmHg 58%

24 April, Saturday

Time Temperature Precipitation Wind Pressure Humidity
00:00 +2°C° 0 mm 3 mps 756 mmHg 57%
01:00 +2°C° 0 mm 3 mps 755 mmHg 57%
02:00 +1°C° 0 mm 4 mps 755 mmHg 57%
03:00 +1°C° 0 mm 5 mps 754 mmHg 57%
04:00 +1°C° 0 mm 6 mps 753 mmHg 58%
05:00 +2°C° 0 mm 6 mps 753 mmHg 66%
06:00 +2°C° 0 mm 7 mps 753 mmHg 74%
07:00 +2°C° 0 mm 7 mps 753 mmHg 82%
08:00 +3°C° 0 mm 7 mps 753 mmHg 81%
09:00 +3°C° 0 mm 7 mps 753 mmHg 80%
10:00 +3°C° 0 mm 7 mps 753 mmHg 79%
11:00 +4°C° 0.1 mm 7 mps 753 mmHg 76%
12:00 +5°C° 0.1 mm 7 mps 753 mmHg 73%
13:00 +6°C° 0.1 mm 7 mps 753 mmHg 70%
14:00 +6°C° 0.4 mm 7 mps 754 mmHg 66%
15:00 +7°C° 0.4 mm 6 mps 754 mmHg 63%
16:00 +7°C° 0.4 mm 6 mps 754 mmHg 59%
17:00 +6°C° 0 mm 5 mps 755 mmHg 60%
18:00 +4°C° 0 mm 4 mps 755 mmHg 62%
19:00 +2°C° 0 mm 3 mps 756 mmHg 63%
20:00 +1°C° 0 mm 3 mps 756 mmHg 64%
21:00 +1°C° 0 mm 3 mps 757 mmHg 66%
22:00 0°C° 0 mm 3 mps 757 mmHg 67%
23:00 -1°C° 0 mm 3 mps 757 mmHg 72%

25 April, Sunday

Time Temperature Precipitation Wind Pressure Humidity
00:00 -1°C° 0 mm 3 mps 757 mmHg 77%
01:00 -1°C° 0 mm 3 mps 757 mmHg 82%
02:00 -1°C° 0 mm 3 mps 757 mmHg 85%
03:00 -2°C° 0 mm 3 mps 757 mmHg 87%
04:00 -2°C° 0 mm 3 mps 757 mmHg 89%
05:00 0°C° 0 mm 3 mps 758 mmHg 81%
06:00 +2°C° 0 mm 3 mps 758 mmHg 73%
07:00 +3°C° 0 mm 4 mps 758 mmHg 65%
08:00 +5°C° 0 mm 4 mps 759 mmHg 57%
09:00 +6°C° 0 mm 4 mps 759 mmHg 50%
10:00 +7°C° 0 mm 5 mps 759 mmHg 42%
11:00 +8°C° 0 mm 5 mps 759 mmHg 41%
12:00 +8°C° 0 mm 5 mps 759 mmHg 39%
13:00 +9°C° 0 mm 6 mps 759 mmHg 37%
14:00 +8°C° 0 mm 6 mps 759 mmHg 39%
15:00 +8°C° 0 mm 7 mps 759 mmHg 40%
16:00 +8°C° 0 mm 7 mps 759 mmHg 41%
17:00 +5°C° 0 mm 6 mps 759 mmHg 48%
18:00 +4°C° 0 mm 4 mps 759 mmHg 54%
19:00 +4°C° 0 mm 2 mps 759 mmHg 60%
20:00 +3°C° 0 mm 2 mps 759 mmHg 62%
21:00 +3°C° 0 mm 2 mps 758 mmHg 65%
22:00 +2°C° 0 mm 2 mps 758 mmHg 67%
23:00 +2°C° 0 mm 2 mps 758 mmHg 67%
Show more

We Need Your Consent

Meteoprog and our Service Providers may store and access personal data such as cookies, device identifiers or other similar technologies on your device and process such data to personalise content and ads, as well as provide social media features and to analyse the traffic.

  • Store and/or access information on your device

    Cookies, device identifiers or other information can be stored or accessed on your device for the purposes indicated above.

  • Personalised ads and content, ad and content measurement, audience insights, and products development

    Ads and content can be personalised based on a profile. More data can be added to better personalise ads and content. Ad and content performance can be measured. Insights about the audience who saw the ads and content can be derived. Such data can be used to develop or improve user’s experience, systems and software.

By clicking ‘I Agree’ you will allow the use of indicated cookies, device identifiers, web beacons or other similar technologies. Your settings can be changed in the browser on your device.

For certain purposes, legitimate interests may be relied on, rather than consent. You can read more about this in our Privacy and Cookie Policy.